Vorticity
5 6 7 7 6 5 3 0 3 1 1 6 3 10 3 2 -3 -7 2 3 1 12 11 9 1 2 1 -2 -3 6 1 4 8 10 4 4 3 1 9 8 8 6 8 6 5 6 7 7 7
10 10 8 10 9 10 5 4 2 2 1 3 2 5 3 1 6 3 10 -5 14 7 4 7 7 4 2 4 5 1 8 1 5 10 8 4 3 3 4 11 8 6 5 8 7 6 5 5 5
7 7 8 8 8 1 2 4 4 5 4 4 3 3 3 0 5 0 3 7 0 11 5 2 4 12 9 5 1 4 6 3 4 5 10 7 4 4 3 6 11 8 6 6 6 7 8 7 6
6 6 6 7 7 5 3 5 7 5 7 7 4 4 2 5 7 13 9 5 7 6 16 17 3 12 18 8 10 6 6 7 2 4 7 9 7 2 3 3 7 9 8 7 5 5 8 11 9
4 5 8 4 6 7 6 6 8 6 4 8 7 7 7 9 12 9 12 10 12 6 9 11 -2 2 6 12 13 8 7 8 2 3 5 7 7 7 3 3 4 7 8 9 7 5 8 12 13
4 4 9 8 3 3 4 7 10 8 7 7 6 5 5 5 7 5 5 1 3 3 5 9 8 5 6 7 7 7 10 9 6 3 4 4 7 5 6 5 4 4 8 7 8 7 6 6 9
3 7 9 5 5 3 4 5 6 6 6 6 4 2 4 5 5 2 1 2 3 2 1 -1 6 7 7 4 7 7 7 8 7 5 5 0 4 6 3 7 6 3 4 7 7 7 6 4 5
4 6 4 4 6 3 4 3 7 5 7 4 3 5 7 6 6 5 1 2 5 3 7 6 5 3 5 9 6 6 8 7 7 6 5 6 -1 1 5 2 8 5 4 4 5 8 6 6 4
2 2 3 7 6 5 3 4 5 5 6 9 8 3 5 7 6 4 3 4 2 3 7 8 2 4 3 -1 3 6 5 7 6 7 7 5 4 2 1 4 2 9 5 6 5 4 7 8 6
4 3 5 7 9 10 6 5 4 5 3 7 6 8 8 6 3 3 3 4 5 5 6 8 10 5 4 4 5 2 8 8 6 6 6 5 5 2 4 2 2 3 10 7 6 5 4 5 7
4 6 10 12 13 10 8 6 4 6 4 11 5 10 6 7 5 3 6 8 8 8 7 7 6 7 8 4 2 2 2 6 10 8 5 7 4 4 3 2 0 1 1 11 5 6 5 5 4
8 10 12 13 11 6 8 9 6 5 7 6 11 11 5 1 3 5 9 6 5 6 7 7 6 7 7 8 11 8 5 3 7 7 5 5 6 18 17 1 2 -1 2 0 8 9 8 6 6
8 6 8 8 9 7 8 7 6 6 5 8 6 7 6 7 6 3 3 7 8 7 6 5 6 8 8 8 16 8 12 9 7 4 1 5 4 6 -1 8 5 7 -0 3 1 5 5 2 4
7 6 5 7 10 8 6 5 5 7 9 9 8 6 7 7 8 7 3 8 9 7 5 6 7 8 6 6 6 8 12 13 9 3 5 7 11 5 4 7 -0 -1 2 3 -3 6 3 3 2
7 6 5 7 8 7 6 4 5 7 5 5 4 4 6 5 5 8 8 4 8 7 7 5 5 6 9 5 4 8 7 10 13 12 5 3 3 2 -7 21 -4 13 -5 0 4 -5 7 3 2
6 4 6 6 7 7 7 6 7 7 7 7 7 5 6 13 9 8 7 7 12 8 8 4 5 7 3 3 5 5 7 6 9 10 11 12 9 10 7 5 4 -2 17 1 -1 15 2 -3 3
6 4 4 6 4 6 6 5 7 7 7 7 5 5 5 7 2 6 5 4 6 7 5 6 8 6 5 3 3 3 5 6 7 5 6 7 7 7 7 9 13 7 -1 -7 -3 40 15 -4 3
6 7 6 6 8 7 7 7 6 6 4 -0 -0 5 6 7 4 2 2 6 6 5 7 8 5 4 4 5 5 5 3 5 7 4 6 7 5 8 1 6 4 3 10 15 18 11 -4 24 7
5 5 7 7 10 7 6 8 7 7 7 8 6 5 6 7 7 7 5 5 3 5 8 7 13 10 13 12 6 -2 -5 5 3 1 -0 0 8 13 7 4 9 7 7 5 5 4 6 13 1
8 8 7 6 7 4 5 6 7 5 10 10 10 8 6 6 6 7 7 9 9 7 10 13 3 2 6 5 -1 4 -2 -1 -2 -3 -1 4 3 3 2 6 6 -0 -8 10 11 8 3 6 6
7 8 7 6 5 6 6 4 8 6 6 8 7 6 5 6 7 7 8 7 3 2 1 1 1 -0 -1 0 3 1 -1 -0 -1 -6 -2 -5 -0 2 -1 3 1 3 3 5 2 1 5 2 3
7 7 5 7 5 5 4 3 4 1 -3 -1 2 4 5 6 4 3 3 5 6 4 3 4 1 0 4 7 7 6 5 3 4 2 -1 -1 -1 -2 4 3 4 5 -1 4 13 0 1 2 5
7 6 5 4 3 4 2 5 4 5 1 4 8 9 7 6 6 4 4 3 2 4 6 1 -3 1 3 2 -2 -2 -1 -0 0 3 6 3 2 -5 -3 7 3 2 -0 5 6 9 -1 9 2
4 5 4 4 3 6 1 4 4 7 5 4 7 8 8 8 9 8 8 4 3 1 1 5 9 14 13 10 13 -0 12 16 13 4 2 4 4 6 6 4 1 6 -1 8 13 11 3 7 -3
6 8 8 7 5 4 7 8 3 5 5 4 4 4 5 5 4 1 4 11 16 15 14 13 10 9 7 8 9 8 14 4 -4 -0 1 14 12 3 4 -0 -2 -2 8 13 10 -6 -0 17 -32
8 8 7 9 8 6 4 4 4 3 6 5 5 5 4 2 6 9 8 8 7 9 5 -1 -4 -2 -2 1 1 5 11 11 3 2 1 -2 1 5 8 4 1 1 10 1 9 6 3 15 7
6 8 6 7 5 6 5 4 4 4 3 4 7 5 7 6 4 9 12 11 9 1 -1 -0 0 4 3 4 2 4 5 6 7 12 6 5 10 6 5 11 12 12 15 13 5 3 -7 25 -4
11 7 8 5 4 3 3 5 9 5 3 8 7 6 4 10 10 10 9 4 2 3 6 6 3 1 1 3 5 10 12 15 23 42 47 48 48 42 38 39 38 36 30 33 35 27 19 26 24
9 6 7 10 6 4 7 17 15 5 7 8 9 13 10 10 9 5 3 4 6 7 2 3 2 4 6 12 21 31 36 26 35 25 16 17 10 6 11 16 26 26 17 17 14 24 23 20 14
8 7 7 8 3 4 5 17 2 6 11 15 11 11 15 7 3 3 6 5 1 1 2 4 7 9 19 29 33 33 20 1 7 16 4 10 13 20 18 24 14 16 19 34 32 53 32 8 17
Height
5878 5878 5878 5879 5880 5878 5875 5875 5877 5879 5880 5880 5880 5880 5881 5880 5881 5884 5880 5880 5881 5879 5877 5876 5875 5875 5875 5875 5875 5874 5873 5872 5871 5870 5868 5867 5866 5866 5865 5864 5864 5865 5865 5863 5863 5863 5864 5864 5864
5874 5875 5876 5875 5876 5876 5872 5872 5873 5876 5878 5878 5879 5878 5879 5878 5877 5878 5877 5876 5876 5876 5874 5873 5873 5872 5872 5872 5872 5872 5872 5871 5870 5869 5868 5867 5865 5865 5864 5864 5863 5863 5863 5862 5862 5863 5863 5862 5863
5872 5873 5874 5872 5872 5872 5868 5869 5871 5874 5875 5876 5876 5876 5876 5875 5875 5874 5874 5873 5872 5872 5871 5870 5869 5869 5868 5869 5868 5869 5869 5869 5869 5868 5868 5866 5865 5863 5863 5863 5863 5862 5861 5861 5860 5861 5862 5862 5861
5869 5871 5871 5869 5867 5866 5866 5866 5868 5871 5873 5873 5873 5873 5872 5872 5871 5871 5869 5868 5868 5869 5868 5867 5867 5865 5865 5865 5865 5866 5866 5866 5866 5866 5866 5865 5864 5863 5862 5862 5862 5861 5860 5859 5857 5858 5860 5860 5860
5867 5869 5867 5866 5866 5864 5864 5865 5868 5866 5869 5870 5870 5870 5868 5869 5868 5867 5865 5864 5863 5864 5864 5863 5864 5863 5862 5862 5862 5863 5863 5863 5862 5864 5864 5863 5862 5861 5860 5860 5860 5860 5860 5859 5857 5855 5857 5858 5858
5864 5865 5865 5863 5862 5861 5862 5863 5864 5864 5864 5867 5866 5866 5866 5866 5865 5864 5862 5860 5859 5859 5860 5860 5859 5859 5858 5858 5859 5859 5860 5860 5860 5861 5861 5861 5860 5859 5858 5858 5858 5857 5857 5857 5856 5855 5855 5856 5857
5860 5861 5861 5860 5858 5857 5860 5861 5861 5860 5861 5863 5864 5863 5863 5862 5860 5859 5859 5857 5855 5855 5855 5856 5856 5855 5855 5854 5854 5854 5855 5855 5856 5856 5856 5857 5857 5856 5854 5855 5855 5855 5854 5854 5854 5853 5854 5853 5855
5855 5856 5858 5857 5854 5852 5856 5857 5858 5856 5857 5858 5859 5859 5858 5858 5857 5856 5854 5852 5851 5850 5850 5851 5851 5851 5851 5850 5850 5850 5850 5850 5851 5851 5852 5853 5853 5852 5852 5852 5852 5851 5851 5851 5850 5850 5850 5851 5852
5850 5852 5853 5853 5851 5849 5852 5853 5853 5853 5853 5853 5854 5853 5853 5853 5853 5851 5850 5848 5848 5846 5846 5847 5847 5846 5847 5846 5846 5846 5846 5845 5846 5847 5847 5848 5848 5848 5848 5848 5848 5847 5847 5847 5847 5847 5847 5847 5848
5844 5846 5847 5847 5847 5847 5846 5847 5847 5847 5849 5849 5847 5848 5849 5849 5849 5849 5848 5848 5847 5846 5845 5844 5844 5843 5843 5842 5842 5841 5841 5841 5841 5840 5841 5841 5842 5842 5842 5843 5844 5844 5843 5844 5843 5843 5843 5843 5844
5839 5842 5841 5842 5842 5842 5843 5842 5842 5843 5844 5842 5844 5846 5845 5845 5845 5845 5845 5845 5846 5844 5842 5841 5840 5839 5839 5838 5838 5838 5838 5838 5837 5836 5836 5836 5835 5836 5836 5836 5838 5839 5838 5839 5839 5839 5838 5839 5839
5833 5835 5835 5836 5837 5837 5837 5839 5840 5840 5841 5838 5840 5842 5842 5841 5843 5845 5845 5843 5841 5840 5838 5837 5836 5834 5834 5835 5834 5833 5833 5833 5833 5833 5832 5832 5831 5830 5830 5831 5830 5832 5833 5833 5833 5833 5834 5833 5834
5828 5829 5830 5831 5832 5832 5834 5836 5836 5837 5834 5833 5834 5836 5837 5838 5839 5839 5839 5839 5837 5835 5833 5831 5830 5830 5829 5830 5830 5829 5828 5827 5827 5828 5827 5827 5826 5822 5823 5826 5825 5826 5827 5827 5826 5827 5828 5828 5828
5824 5824 5825 5827 5827 5827 5830 5832 5833 5830 5830 5830 5831 5832 5832 5833 5834 5835 5835 5834 5832 5829 5827 5825 5824 5824 5823 5822 5822 5822 5823 5821 5822 5821 5821 5821 5817 5813 5815 5818 5818 5819 5819 5819 5820 5820 5820 5821 5822
5819 5820 5820 5822 5820 5822 5824 5828 5826 5824 5824 5825 5826 5827 5827 5827 5827 5828 5829 5830 5828 5825 5823 5821 5819 5817 5816 5814 5815 5815 5815 5814 5815 5814 5815 5813 5813 5810 5809 5810 5811 5812 5813 5809 5810 5811 5811 5813 5813
5812 5814 5815 5815 5814 5817 5819 5823 5820 5817 5818 5819 5820 5819 5820 5820 5820 5820 5821 5822 5821 5820 5818 5817 5815 5813 5811 5810 5808 5809 5809 5808 5808 5808 5807 5807 5807 5804 5805 5804 5803 5802 5803 5801 5800 5802 5802 5801 5804
5806 5808 5809 5809 5810 5809 5811 5815 5814 5812 5813 5813 5813 5813 5812 5813 5813 5813 5812 5812 5812 5812 5810 5809 5808 5807 5806 5803 5802 5800 5801 5803 5801 5800 5799 5799 5798 5796 5795 5793 5792 5790 5790 5791 5792 5790 5794 5793 5793
5797 5800 5804 5805 5802 5803 5803 5807 5810 5805 5806 5806 5806 5804 5804 5804 5804 5804 5803 5803 5803 5802 5802 5800 5799 5798 5797 5795 5794 5793 5792 5793 5793 5793 5792 5790 5789 5787 5785 5785 5783 5780 5779 5781 5782 5782 5783 5784 5784
5792 5794 5796 5799 5796 5795 5797 5797 5800 5801 5798 5798 5797 5796 5796 5795 5794 5794 5793 5794 5794 5793 5792 5791 5790 5788 5788 5787 5786 5785 5784 5782 5782 5782 5782 5780 5779 5778 5776 5775 5774 5773 5770 5769 5770 5769 5770 5771 5774
5784 5786 5789 5791 5790 5788 5790 5790 5790 5790 5790 5788 5788 5787 5786 5785 5785 5785 5784 5784 5783 5782 5781 5781 5780 5780 5779 5778 5777 5775 5774 5772 5770 5768 5769 5769 5768 5766 5763 5763 5762 5761 5761 5760 5758 5757 5757 5756 5758
5776 5779 5780 5781 5783 5783 5779 5784 5780 5782 5782 5781 5779 5778 5776 5776 5777 5776 5775 5772 5770 5770 5769 5768 5767 5766 5764 5763 5762 5761 5760 5759 5758 5756 5755 5753 5753 5753 5751 5750 5748 5747 5748 5747 5746 5744 5744 5744 5746
5767 5770 5771 5772 5773 5775 5774 5773 5770 5770 5772 5771 5770 5768 5767 5765 5764 5763 5763 5763 5761 5759 5758 5756 5753 5751 5750 5748 5748 5747 5745 5745 5744 5743 5741 5740 5737 5735 5736 5735 5732 5730 5730 5731 5732 5731 5730 5732 5728
5760 5762 5762 5763 5764 5763 5765 5765 5762 5759 5758 5760 5760 5758 5757 5756 5755 5753 5751 5749 5747 5745 5743 5741 5739 5737 5736 5735 5732 5730 5729 5726 5725 5724 5722 5720 5720 5717 5715 5714 5715 5713 5712 5713 5712 5713 5713 5715 5712
5751 5753 5754 5753 5753 5752 5754 5754 5754 5747 5745 5746 5746 5746 5745 5744 5742 5739 5737 5734 5732 5731 5727 5724 5721 5719 5717 5715 5712 5711 5709 5708 5707 5705 5703 5702 5699 5699 5695 5694 5692 5692 5692 5694 5693 5697 5698 5699 5696
5743 5743 5743 5743 5742 5745 5742 5742 5743 5737 5736 5733 5732 5731 5731 5728 5726 5724 5721 5718 5715 5713 5709 5705 5702 5698 5695 5692 5690 5689 5688 5686 5685 5685 5682 5680 5679 5678 5676 5672 5670 5667 5669 5670 5672 5673 5674 5675 5676
5732 5733 5733 5732 5733 5731 5729 5730 5727 5726 5724 5721 5721 5719 5715 5711 5708 5705 5702 5699 5696 5694 5690 5686 5682 5677 5672 5669 5666 5663 5660 5659 5658 5656 5654 5654 5654 5652 5651 5649 5647 5646 5645 5643 5644 5649 5651 5653 5656
5721 5722 5723 5722 5720 5719 5720 5718 5714 5712 5711 5709 5707 5703 5700 5695 5691 5687 5685 5682 5678 5674 5669 5665 5660 5654 5648 5645 5641 5636 5630 5629 5627 5624 5624 5623 5621 5621 5621 5619 5617 5617 5619 5621 5619 5619 5622 5625 5631
5710 5710 5710 5708 5708 5706 5707 5705 5698 5696 5697 5696 5694 5690 5685 5679 5676 5672 5668 5664 5661 5656 5649 5642 5636 5630 5624 5620 5617 5611 5604 5599 5597 5594 5591 5589 5588 5588 5588 5589 5589 5591 5590 5591 5594 5597 5598 5598 5603
5697 5695 5695 5695 5693 5692 5694 5695 5683 5680 5682 5682 5678 5672 5667 5665 5661 5656 5652 5645 5639 5633 5628 5621 5614 5608 5601 5594 5589 5584 5578 5575 5573 5573 5571 5570 5568 5566 5566 5566 5566 5566 5567 5567 5570 5574 5577 5577 5578
5681 5681 5681 5680 5680 5678 5675 5681 5670 5671 5671 5666 5659 5655 5654 5649 5644 5640 5633 5626 5619 5612 5604 5597 5588 5580 5572 5567 5564 5562 5558 5554 5553 5553 5551 5552 5552 5550 5549 5548 5549 5549 5548 5549 5550 5553 5556 5557 5561